Wind_Speed
19 19 18 16 13 12 12 12 12 10 8 9 12 15 17 14 10 12 12 6 8 12 9 4 4 7 9 9 10 11 8 5 3 2 3 6 8 9 12 16 21 24 26 28 31 34 35 34 34 34 34 35 36 37 37 37 37 37 37 39 39 40 41 43 42 42 41 41 41 40 39 38 37 36 34 33 32 32 32 31 29 29 29 29 30 31 31
17 20 20 17 15 15 15 15 15 14 13 12 12 13 14 14 11 11 10 7 9 11 9 9 11 14 15 14 14 13 10 7 6 5 6 7 7 7 10 15 20 24 27 29 32 36 37 35 35 35 34 34 36 36 36 38 38 37 37 38 40 41 43 44 44 42 42 42 42 41 41 39 38 37 36 35 34 34 34 32 30 30 30 29 29 29 31
13 17 18 17 17 16 16 17 16 16 15 14 13 12 12 12 12 11 12 12 12 10 7 10 13 16 17 17 16 14 11 9 9 10 10 9 8 7 8 10 16 22 25 29 32 35 38 39 38 37 36 36 36 36 36 38 39 38 38 40 42 44 44 44 44 43 42 42 42 42 41 40 39 37 37 36 36 35 35 33 32 32 31 31 30 29 30
10 12 15 17 16 16 18 19 18 17 17 14 12 12 12 12 13 13 13 12 10 7 8 10 11 12 14 15 17 16 14 12 12 13 13 13 12 10 10 9 12 17 22 26 30 34 38 40 40 39 38 37 36 36 37 38 39 38 39 40 43 45 44 43 44 44 43 42 42 42 42 40 39 37 36 36 36 36 35 34 34 34 33 33 33 31 30
9 10 12 13 13 14 15 15 16 18 17 14 14 13 10 9 10 12 11 7 3 4 9 9 9 10 11 13 15 16 16 16 15 15 15 16 16 15 14 13 13 16 19 23 29 34 36 38 40 41 41 40 39 39 39 38 38 38 38 39 41 44 43 43 45 44 43 42 42 42 42 40 39 37 36 37 37 37 36 35 35 35 35 34 34 34 33
8 10 11 10 11 14 11 8 12 17 18 18 17 12 8 6 5 7 6 4 4 6 8 9 10 11 13 15 17 17 16 16 16 17 18 19 19 19 19 17 17 17 19 22 27 32 35 37 39 40 40 41 40 38 37 36 36 37 37 37 39 42 44 44 45 43 42 42 42 42 42 40 39 38 37 37 37 37 36 36 36 36 36 35 35 35 35
8 8 8 8 11 12 7 4 8 13 16 19 13 4 3 4 2 4 5 5 5 8 9 10 11 13 17 20 20 19 16 14 15 17 19 20 20 22 22 21 20 19 19 22 26 30 34 36 36 37 37 37 35 34 34 35 36 37 37 36 36 40 43 44 43 42 41 42 42 42 42 40 39 38 38 38 37 37 36 37 37 36 36 35 36 36 35
8 7 7 8 8 8 5 4 4 6 10 13 11 7 4 2 2 4 5 5 6 9 11 11 12 15 18 20 21 20 17 14 14 17 19 21 22 23 24 24 25 24 23 23 26 30 32 33 33 36 37 36 34 34 34 35 35 36 37 36 35 38 42 43 42 41 41 42 42 42 41 41 40 39 39 38 38 37 37 37 37 36 36 35 35 35 35
8 8 8 8 9 10 8 5 2 2 2 5 5 3 3 2 1 3 4 4 6 9 10 12 13 15 14 15 16 14 10 10 14 17 21 23 24 24 25 26 27 26 24 23 24 27 29 31 33 35 36 35 34 34 33 34 35 35 36 37 38 41 42 42 40 40 40 41 41 41 41 41 41 40 40 39 38 38 38 37 37 37 36 35 34 34 34
8 8 8 8 10 10 5 3 4 7 5 2 2 1 3 3 1 2 3 4 6 8 11 14 15 12 10 10 6 4 12 16 18 20 22 23 23 24 25 26 26 24 22 21 22 25 28 31 34 34 34 34 34 34 34 34 35 35 36 39 42 43 42 40 39 39 39 39 39 40 41 41 41 40 40 40 39 38 37 37 36 36 35 34 34 34 34
8 8 8 7 8 6 2 6 7 8 6 5 3 4 4 2 1 3 3 4 7 9 11 14 13 7 7 7 4 16 25 26 23 23 24 23 23 24 25 24 23 20 18 18 20 24 27 31 33 33 34 35 34 34 35 34 34 35 37 40 43 42 40 38 37 37 37 37 38 39 40 40 40 40 40 38 37 36 36 35 35 34 34 34 34 34 34
9 10 8 7 8 4 4 8 9 9 7 4 5 7 4 2 3 4 5 5 8 11 12 11 7 4 4 7 16 28 33 29 24 22 23 23 23 24 23 21 19 16 15 16 20 24 28 31 32 33 34 35 35 35 35 33 34 36 38 40 40 38 37 37 36 36 35 35 36 37 39 39 39 39 38 36 36 35 35 35 34 34 35 35 35 35 35
11 12 9 7 8 3 7 11 11 10 7 5 6 5 1 4 5 6 7 7 9 11 12 9 6 6 10 16 24 30 30 27 22 17 18 22 21 20 20 19 16 12 13 17 20 23 27 31 32 33 34 34 35 36 35 34 35 36 37 38 37 36 37 36 35 34 34 34 35 35 36 37 37 37 36 35 35 35 34 34 34 34 35 34 34 34 34
10 10 8 7 7 2 12 14 9 6 4 5 3 2 3 3 5 7 8 9 10 12 12 11 9 13 17 20 24 27 27 25 21 16 16 17 16 15 14 14 11 9 12 16 19 21 26 30 32 33 34 35 36 37 37 38 37 34 34 35 36 35 35 35 33 32 32 32 33 33 34 34 34 34 34 34 34 34 33 33 34 34 35 34 33 32 32
8 8 8 8 6 4 14 14 6 4 3 1 1 4 4 2 6 7 7 9 12 13 14 14 14 16 19 22 25 28 28 23 19 15 12 11 12 11 10 8 6 5 9 15 19 21 25 29 31 32 34 37 39 40 40 39 36 33 33 35 35 34 34 33 32 31 31 31 31 32 33 32 32 33 33 33 34 34 32 33 33 32 31 30 30 29 29
7 8 7 3 3 6 12 10 4 3 4 2 4 6 4 3 5 8 8 9 12 14 15 17 18 18 21 24 26 29 30 24 19 15 11 8 8 8 7 6 3 0 5 12 17 20 23 26 28 30 33 38 40 40 40 38 34 33 35 35 34 34 33 33 32 32 31 31 30 31 31 31 31 32 32 32 33 32 31 31 31 30 28 25 24 24 24
5 7 5 5 9 11 11 7 3 1 2 2 5 7 7 6 7 9 10 11 13 15 17 18 19 21 24 25 25 29 32 28 22 17 12 9 8 8 7 5 3 3 3 6 11 16 20 23 25 26 30 36 38 37 37 36 34 33 35 36 34 33 32 32 32 31 30 29 28 29 30 30 30 31 30 31 32 31 30 29 29 29 27 24 23 23 22
7 8 8 7 11 14 13 8 4 3 3 3 6 9 10 10 10 11 12 13 13 16 17 18 21 24 27 26 26 30 33 30 24 18 13 11 12 11 10 9 7 4 4 5 7 11 15 17 19 22 25 30 34 34 34 35 35 34 34 33 31 29 29 29 29 28 27 27 27 27 28 28 28 28 28 29 30 30 29 29 28 28 25 23 24 25 23
5 4 2 4 11 17 15 8 6 5 4 5 9 12 12 13 14 13 13 13 13 14 16 19 22 26 26 26 29 32 34 31 25 20 15 12 13 15 14 12 10 7 5 5 6 12 16 14 12 16 19 22 29 32 32 32 33 33 33 30 27 27 27 26 26 26 26 26 26 26 27 27 26 26 27 27 28 28 29 29 29 29 27 24 23 25 23
6 4 3 9 17 18 11 6 5 3 7 11 13 14 13 14 16 15 13 12 12 13 14 17 21 25 25 25 28 31 33 32 27 22 17 13 13 15 16 15 13 11 9 6 6 10 13 12 11 14 16 18 23 30 32 30 31 32 31 28 26 26 27 27 27 27 27 27 26 25 26 27 26 25 26 26 27 28 28 28 28 28 28 27 25 24 23
5 4 5 12 16 10 4 3 6 10 14 16 17 16 14 14 15 15 14 13 12 11 13 16 20 23 24 24 26 28 31 31 28 23 18 15 16 18 18 17 15 13 12 10 8 7 7 8 12 16 19 20 24 29 30 30 31 31 30 28 27 27 28 28 28 28 27 27 26 25 24 25 26 26 26 26 26 25 25 27 28 27 27 26 25 25 24
3 4 8 12 11 6 7 13 16 16 17 18 18 17 15 14 14 15 15 14 12 10 11 14 18 21 22 25 27 28 30 31 29 24 18 17 20 21 20 18 16 14 13 12 9 8 7 6 8 11 15 19 23 26 28 29 30 30 30 30 29 28 28 28 27 27 27 26 26 26 23 22 25 29 29 28 28 27 25 27 28 28 27 26 24 24 23
5 10 14 14 11 10 14 17 18 18 18 18 17 17 16 14 14 14 14 14 14 11 10 12 15 18 21 24 26 27 29 30 28 25 21 20 22 23 21 19 18 16 14 14 12 10 8 7 7 7 8 11 15 19 23 25 26 27 28 28 27 27 27 27 26 26 27 26 26 27 25 22 23 29 31 30 30 30 29 29 29 28 28 27 27 26 25
9 13 17 16 15 14 15 16 17 17 15 13 14 15 14 13 12 12 12 12 12 11 10 10 13 16 19 23 25 26 29 31 28 26 25 22 22 23 23 21 19 19 17 16 14 12 10 9 8 8 7 7 8 10 12 15 17 18 21 23 24 23 23 25 27 27 27 26 27 28 27 24 23 28 31 30 30 31 31 31 30 30 29 28 27 27 27
14 16 18 17 14 13 15 16 14 13 12 12 12 12 11 11 11 11 11 10 9 9 9 8 11 14 17 21 23 24 26 29 28 27 27 25 23 23 24 23 20 19 19 18 15 13 12 11 9 9 9 7 7 7 8 10 12 13 14 16 16 16 16 18 21 24 23 20 20 21 21 23 26 30 30 29 29 30 32 32 32 32 31 30 28 27 26
19 20 20 15 11 13 17 16 14 14 15 15 13 11 10 10 11 11 10 9 9 9 9 6 8 12 15 19 21 21 24 27 27 26 28 29 28 25 23 22 20 19 19 19 17 16 14 13 12 11 10 8 7 5 4 8 11 12 12 12 12 13 15 14 15 18 18 15 15 17 19 22 26 27 27 26 26 27 28 29 30 31 31 31 30 29 26
21 22 21 16 14 19 22 18 16 17 16 13 12 11 8 8 9 10 9 8 9 10 8 5 6 8 12 17 18 17 20 25 28 26 27 30 32 27 22 21 22 21 20 19 18 17 16 14 13 13 12 10 9 5 3 6 9 9 10 11 12 14 18 17 15 16 16 15 17 21 23 24 24 23 22 22 20 16 17 20 25 29 30 29 29 28 26
23 23 22 17 17 22 22 18 16 16 15 12 11 10 7 5 6 8 8 8 9 10 8 5 3 4 8 12 15 16 19 23 27 27 26 27 29 28 26 24 23 20 19 18 17 18 18 17 16 16 14 13 11 8 6 7 7 6 7 8 8 10 14 15 14 12 13 15 18 22 23 23 22 19 16 15 14 14 15 19 22 23 24 24 25 25 24
23 22 21 19 19 20 19 17 18 18 17 15 13 11 9 6 5 6 7 8 9 10 9 7 5 3 5 8 11 14 17 19 23 26 24 23 25 27 28 27 23 21 21 22 20 19 20 20 19 18 16 15 14 12 10 8 6 6 8 9 8 8 9 11 13 13 14 15 16 18 19 17 15 14 14 14 16 19 20 19 19 18 17 18 19 20 20
24 22 21 21 21 20 20 21 21 21 20 18 15 12 11 9 7 6 6 6 7 8 9 9 8 7 5 4 6 9 13 15 17 21 22 22 24 25 25 26 26 25 26 27 26 23 22 21 20 19 18 16 15 13 12 10 8 5 6 9 11 12 12 12 12 13 14 14 13 14 14 14 15 16 18 19 19 19 17 15 14 14 14 14 13 13 15
24 22 22 22 23 23 23 23 23 22 21 19 17 15 14 12 10 8 7 6 6 5 7 9 8 7 7 5 3 5 9 11 13 16 18 19 21 23 22 22 23 24 25 26 26 25 24 22 21 20 19 17 16 15 13 11 10 9 6 5 6 8 10 10 10 10 12 13 14 14 13 13 14 16 16 17 17 15 14 13 13 13 12 11 11 11 13
23 22 22 24 25 26 25 24 24 24 24 22 20 18 16 13 11 9 8 8 7 5 5 7 7 7 7 6 3 4 7 10 11 12 13 14 15 18 19 19 19 20 21 23 23 23 23 23 22 20 19 18 18 17 15 13 11 9 8 6 5 5 7 7 7 10 12 14 14 14 13 12 12 14 14 15 15 14 13 13 13 13 13 13 14 16 17
23 23 24 26 27 28 28 26 25 25 24 23 21 18 16 14 11 9 9 8 7 5 3 4 6 7 7 6 4 4 6 8 9 8 9 11 12 14 15 15 15 16 18 19 19 18 19 20 20 18 17 17 17 16 15 14 12 10 8 7 5 5 5 5 4 7 11 13 13 13 12 11 11 12 13 13 13 14 14 15 16 17 18 20 22 23 23
22 23 23 23 24 24 25 24 24 24 23 23 22 20 18 16 13 10 9 8 6 4 2 2 3 5 6 5 5 4 4 7 8 7 6 8 10 10 11 11 12 12 12 13 14 14 15 16 16 15 14 14 14 14 14 13 12 10 9 7 5 5 6 5 2 2 7 10 12 13 12 11 10 11 11 11 13 14 16 18 19 20 22 24 24 22 21
20 20 20 21 22 21 20 20 22 23 23 23 23 22 20 18 15 12 10 9 6 3 2 1 1 2 3 2 3 3 4 7 9 8 6 6 8 8 8 9 8 8 8 9 10 11 11 11 11 12 11 10 10 11 12 12 11 11 9 7 5 7 9 8 5 1 3 7 10 12 12 12 12 12 12 12 13 15 17 19 21 22 23 24 23 21 20
19 19 20 22 23 23 21 19 20 21 21 21 22 22 21 20 18 15 13 11 8 4 3 3 4 5 4 2 1 3 3 5 8 8 7 7 7 7 7 8 7 6 6 6 7 7 7 7 8 9 9 8 7 7 9 10 10 9 7 6 7 9 11 10 6 2 2 3 6 9 12 13 15 16 16 16 17 19 20 22 23 23 23 24 23 23 21
18 19 20 21 22 23 23 22 21 21 21 21 21 21 22 23 21 18 16 13 11 8 7 7 7 7 6 4 3 2 3 5 7 7 7 7 7 6 6 6 6 4 3 4 5 5 5 5 5 6 7 8 6 4 4 6 9 8 5 5 7 9 9 8 4 1 3 3 5 9 13 16 19 20 21 22 23 23 23 24 24 23 23 24 26 27 25
18 19 20 21 22 22 23 22 21 20 20 21 21 21 22 23 23 20 18 17 15 13 11 11 10 9 8 6 4 3 4 6 8 8 8 8 8 8 6 6 7 6 5 5 5 4 4 4 3 3 3 4 5 5 3 4 7 7 5 3 4 5 6 5 2 2 6 7 8 11 15 18 21 22 23 23 22 23 23 24 24 24 25 26 27 26 24
18 18 19 20 21 22 22 23 22 21 20 20 21 21 21 22 23 23 21 19 17 15 13 12 10 10 9 8 7 7 7 7 8 8 8 7 8 8 8 9 10 10 9 7 5 5 4 4 4 3 2 3 4 5 5 5 6 6 6 6 5 5 5 3 1 5 8 11 12 14 16 20 22 23 24 23 22 22 24 25 25 26 26 25 24 22 22
17 17 18 19 20 21 22 23 23 22 20 19 20 20 20 21 22 23 23 21 19 17 15 13 12 11 11 11 11 12 11 9 8 7 6 6 7 9 9 10 11 12 12 11 9 8 6 5 4 3 4 4 6 6 6 7 7 6 6 8 8 6 5 4 4 6 9 13 15 16 18 20 22 23 24 24 24 24 25 25 25 25 25 23 22 22 23
16 16 17 18 19 20 21 21 22 22 21 19 18 19 19 19 20 21 22 21 19 18 17 16 15 14 13 13 12 12 12 12 11 9 7 7 8 10 12 12 13 14 15 14 14 12 11 8 6 4 4 5 6 7 7 8 8 8 7 7 6 5 3 2 4 7 10 13 16 18 20 21 22 22 22 23 23 24 24 24 24 24 23 22 22 22 22
15 16 16 17 17 18 19 20 21 21 22 21 19 18 18 18 19 19 20 21 21 21 20 18 17 16 15 14 14 14 14 14 14 13 12 12 13 13 13 13 14 15 15 15 15 14 13 12 9 6 5 5 5 6 7 8 9 9 8 7 7 5 5 6 8 10 12 15 17 19 20 21 21 20 21 22 21 21 22 22 22 21 21 21 22 21 20
15 15 16 16 16 17 18 19 19 20 21 22 21 19 18 17 17 18 19 21 22 23 22 21 19 18 17 16 16 16 15 14 13 13 14 15 15 14 13 12 12 13 13 13 13 13 12 11 10 8 6 5 5 5 5 6 7 7 8 8 8 8 8 10 11 13 15 17 19 20 21 21 21 20 20 20 19 18 18 19 19 19 19 19 19 19 19
14 15 15 16 16 15 16 17 18 19 19 20 21 20 20 18 17 17 18 19 19 21 23 23 22 21 21 19 19 18 17 14 12 12 13 15 16 16 14 13 12 12 12 11 10 10 10 9 8 6 6 5 4 4 4 4 4 5 7 8 9 9 10 12 12 13 15 16 18 18 19 20 21 20 20 19 18 18 18 19 18 18 18 18 17 17 17
14 14 14 15 15 14 14 15 16 17 17 18 19 19 20 19 17 16 16 17 18 19 21 22 21 21 21 21 20 19 18 17 16 15 15 17 18 17 14 13 13 12 11 10 11 11 10 9 7 7 6 5 3 1 2 3 5 6 8 9 10 12 13 14 15 17 18 20 21 21 21 22 21 21 20 20 20 20 21 21 20 20 19 19 19 18 17
13 14 14 14 13 12 12 13 14 15 15 17 18 18 19 19 19 17 16 15 16 16 18 19 21 22 21 20 19 17 17 17 18 18 17 16 17 16 15 15 16 15 13 13 15 15 14 13 11 11 11 11 11 11 12 12 13 15 16 17 18 20 22 23 24 25 25 25 25 26 26 25 25 24 23 23 23 22 22 22 22 21 20 19 19 18 17
12 13 14 14 13 11 10 11 12 13 15 17 18 18 18 18 19 19 17 16 15 16 16 16 17 18 19 19 18 16 15 15 16 16 15 14 14 16 17 19 20 21 21 21 20 18 16 15 15 16 18 19 20 23 24 24 24 25 25 26 26 27 28 29 30 30 29 29 29 29 29 29 29 28 27 26 25 24 23 22 22 22 21 20 19 18 17
11 12 13 13 12 10 9 9 10 12 13 15 16 16 17 16 17 18 18 18 18 17 16 16 16 15 14 16 17 16 15 15 16 16 15 14 14 16 19 23 25 26 28 29 27 24 22 21 21 22 25 27 28 30 32 32 31 31 31 31 31 30 29 29 29 29 29 28 28 29 29 29 28 27 27 26 26 25 23 22 21 21 20 19 18 18 17
10 11 12 12 11 10 8 7 8 9 11 12 14 15 16 16 16 17 18 18 18 17 16 16 16 14 13 13 15 16 17 18 18 17 18 19 18 18 20 25 29 31 33 34 34 32 31 30 29 29 30 32 33 34 34 34 34 33 33 32 31 29 28 27 26 25 24 24 24 25 25 25 24 24 23 22 22 21 21 20 20 19 18 18 17 16 15
9 10 11 11 11 11 9 8 7 8 9 10 12 13 14 15 16 17 17 17 17 17 17 16 16 15 13 12 13 14 16 17 18 18 21 23 24 23 24 26 28 31 33 34 35 34 33 33 32 31 31 32 33 34 33 33 33 33 33 32 31 30 28 27 25 24 23 23 23 22 22 23 23 22 22 21 20 19 19 18 18 18 18 17 16 16 15
7 9 10 10 11 12 11 10 10 8 7 7 10 12 14 14 15 16 16 16 16 16 17 17 17 16 14 12 11 12 13 15 18 22 25 27 27 28 28 27 27 28 29 29 30 30 31 31 32 31 31 31 32 32 31 31 31 30 30 29 29 28 27 26 25 24 24 23 22 22 21 21 21 21 21 21 20 19 19 18 17 18 18 18 17 16 15
6 7 8 8 9 10 11 12 12 10 8 7 8 11 12 12 13 14 15 15 15 15 15 16 17 17 15 13 12 12 13 13 16 21 26 27 28 28 28 28 28 28 27 26 26 25 24 24 24 25 25 25 26 26 26 26 27 27 26 26 25 25 25 24 24 23 23 22 22 22 21 21 21 21 21 20 19 18 18 17 16 17 17 16 15 14 13
Wind_Direction
265 273 279 281 278 273 271 271 269 258 240 228 227 233 231 225 232 238 229 236 260 251 253 280 328 343 331 324 332 333 330 328 326 317 278 263 251 233 214 203 200 200 200 198 198 202 202 198 198 199 199 199 199 198 197 196 196 196 195 196 197 201 208 214 217 218 216 216 216 216 217 218 218 218 218 217 217 221 224 223 221 221 222 225 227 229 230
268 270 272 271 267 266 264 261 259 259 255 244 234 235 234 230 237 247 251 273 274 260 275 312 323 324 321 318 322 320 320 336 343 324 300 285 274 255 228 211 205 205 204 202 205 209 208 202 199 199 199 199 199 198 197 195 195 195 194 196 198 202 209 216 218 217 216 216 216 216 216 217 218 218 220 221 222 224 226 225 222 222 222 223 226 229 231
271 270 271 266 259 258 260 258 254 253 252 246 237 234 231 231 236 238 243 257 262 264 303 335 324 316 312 309 310 315 324 340 339 325 313 306 303 291 267 237 220 214 211 208 209 213 215 212 206 201 199 200 200 199 197 196 195 194 194 197 202 207 212 215 216 217 217 217 217 216 216 217 218 218 220 222 224 226 227 226 224 224 224 225 226 227 231
272 270 268 261 256 257 257 253 248 245 244 241 235 228 225 230 228 220 226 237 243 267 326 340 325 314 304 296 301 312 324 335 333 325 318 313 310 306 295 277 250 232 222 214 211 216 220 217 210 204 201 199 198 198 198 197 195 194 194 198 204 210 212 212 215 218 218 217 217 217 216 217 218 218 219 222 224 226 226 226 226 226 226 227 228 227 229
275 277 269 259 253 252 250 245 239 236 236 238 236 225 218 230 231 220 223 231 246 325 338 335 326 322 310 299 306 316 322 326 324 318 314 311 309 306 299 289 274 258 243 226 218 220 220 216 212 209 204 201 200 199 198 196 194 193 194 197 203 209 210 212 217 220 219 217 217 217 217 217 217 218 219 221 224 225 226 227 228 228 228 230 231 230 230
270 281 284 270 248 239 239 244 239 231 226 228 233 227 200 196 229 245 257 283 329 339 334 321 316 316 307 302 301 301 303 310 313 312 311 310 308 305 300 293 282 270 258 242 228 222 220 218 215 210 205 204 204 200 195 193 192 193 193 194 200 207 210 214 219 221 219 219 217 217 217 216 217 217 218 220 222 225 227 229 230 230 231 232 233 233 232
264 276 278 263 244 233 236 265 248 238 231 222 215 189 154 182 238 290 285 289 317 325 315 309 310 304 297 294 292 286 284 289 301 307 307 306 306 303 299 295 289 281 268 252 235 223 219 216 211 205 201 202 200 194 192 192 192 192 193 193 197 205 211 216 219 220 220 219 219 218 218 217 217 217 218 220 222 224 227 229 231 232 232 234 235 236 235
254 257 246 245 248 240 242 248 235 240 230 202 167 122 119 188 298 300 279 282 307 310 307 311 311 302 295 290 282 274 268 272 289 301 304 303 301 299 297 295 290 284 272 254 238 225 218 211 204 200 199 197 195 193 192 191 191 191 192 193 196 205 213 218 219 219 219 219 219 219 218 217 217 218 219 220 221 223 225 228 231 233 234 235 236 238 238
240 245 240 246 261 260 244 215 208 293 245 171 155 144 143 133 351 306 286 289 301 308 318 327 319 306 296 282 268 263 274 297 303 302 301 299 296 296 297 294 289 282 270 253 237 224 214 206 200 198 197 194 191 191 191 190 190 191 192 195 202 210 217 219 219 219 218 218 218 218 218 218 218 218 219 220 221 222 224 227 230 233 235 235 236 238 239
233 242 245 246 255 254 222 128 42 360 355 352 308 238 158 140 51 336 320 318 327 330 335 337 329 310 275 249 242 339 348 335 322 311 304 298 294 296 297 294 290 280 262 245 230 217 208 202 198 195 193 190 188 188 189 189 189 189 192 201 209 216 220 219 219 218 218 218 218 218 218 218 218 219 220 221 221 222 224 226 229 233 234 235 236 238 239
229 234 240 239 240 236 111 53 16 356 346 333 295 224 191 164 38 17 7 354 354 347 340 342 342 316 249 232 330 350 337 328 323 314 305 297 295 296 297 296 292 279 254 235 222 210 203 198 193 190 188 186 184 186 187 188 188 188 194 205 214 218 219 218 217 217 217 217 217 218 219 219 219 220 221 221 221 222 224 226 229 231 234 235 237 238 240
233 235 237 241 244 245 32 9 346 340 332 307 238 219 198 90 35 19 24 18 6 353 343 349 3 352 297 297 317 325 324 321 319 310 298 293 295 297 299 299 294 277 249 226 211 203 198 193 189 185 183 181 183 186 186 186 188 192 201 212 218 218 217 216 215 215 215 215 216 218 220 221 221 222 221 221 221 222 223 225 228 231 233 235 237 239 241
232 235 235 251 256 279 7 349 340 344 318 247 204 211 223 45 30 28 33 23 10 356 346 353 359 332 321 311 309 317 323 322 319 310 295 291 292 296 301 300 290 270 238 218 208 200 195 189 183 179 178 178 183 187 185 186 193 197 205 215 218 216 215 214 213 213 213 213 215 217 220 222 223 223 223 223 223 224 224 226 229 231 233 235 238 240 242
230 232 236 255 251 354 7 341 335 357 307 232 181 274 293 358 17 25 30 21 9 355 345 346 334 317 319 319 318 327 334 331 327 318 301 295 295 297 303 301 286 259 232 218 209 199 190 183 179 178 179 181 185 188 189 194 198 197 202 212 216 215 212 211 210 210 211 212 214 217 220 221 222 224 225 225 227 228 228 229 231 232 235 237 238 239 241
232 232 231 242 239 14 4 339 326 18 354 264 357 298 274 11 6 358 13 18 6 351 341 339 331 323 327 328 328 337 344 344 340 331 314 304 305 307 308 306 295 257 229 217 205 193 187 183 181 180 180 183 189 194 197 199 197 195 202 212 215 212 208 207 208 208 209 211 213 215 218 219 221 223 225 227 229 231 230 230 232 234 235 236 237 238 239
226 224 218 237 284 340 351 342 339 26 28 42 3 331 329 14 353 341 351 2 359 351 342 336 331 330 333 331 333 342 349 353 357 353 344 335 332 330 326 320 326 191 216 212 199 190 186 183 181 180 183 188 194 198 201 200 195 196 205 212 213 210 207 206 207 208 210 212 213 215 218 220 222 224 226 228 230 232 232 232 232 233 234 232 231 232 233
267 258 262 326 331 325 330 330 315 332 342 346 345 338 331 328 333 336 335 337 346 347 343 337 333 334 336 333 332 340 348 355 4 6 3 10 15 11 6 11 51 97 157 185 182 182 182 182 180 178 185 195 199 199 200 200 196 196 205 210 211 209 207 206 208 210 211 212 214 217 219 222 224 225 226 228 231 232 233 232 232 233 234 231 229 229 227
306 285 272 293 312 317 318 304 258 236 255 295 323 324 317 313 317 323 322 322 330 338 343 344 338 337 339 335 334 343 350 357 9 18 19 26 35 33 32 48 74 109 144 138 137 150 160 171 179 180 187 199 203 200 200 201 199 200 206 211 210 208 208 207 208 209 210 212 214 216 218 220 223 224 224 226 229 230 231 231 232 232 230 227 230 232 229
312 290 261 296 310 314 310 281 226 219 258 307 322 316 308 306 307 310 316 317 318 329 343 346 341 340 342 338 338 346 352 357 11 25 27 29 40 42 43 57 75 96 127 132 136 147 147 146 160 176 185 197 204 205 205 204 203 206 210 211 208 206 205 204 204 205 207 208 210 212 215 216 218 222 223 224 227 229 229 230 232 232 231 227 228 230 227
292 286 314 323 314 306 288 233 203 261 306 317 319 313 306 305 303 304 310 313 314 325 339 343 342 343 345 341 339 343 350 357 11 25 28 34 49 49 46 54 66 80 97 103 122 151 157 154 157 165 169 177 195 205 206 204 204 207 210 209 207 204 202 201 201 203 205 206 205 207 213 214 214 218 223 224 225 229 230 230 231 232 233 231 226 223 223
291 288 325 332 323 303 256 275 312 313 313 314 312 308 306 304 301 301 305 307 308 320 336 344 346 346 345 342 340 343 350 359 10 21 30 48 60 56 52 53 57 66 75 81 94 117 141 164 178 181 181 184 194 200 202 203 204 206 207 206 205 204 202 202 204 204 205 208 206 204 209 214 215 216 219 219 221 224 228 232 233 231 231 232 232 229 228
325 343 341 336 327 298 294 312 314 310 310 310 307 304 303 300 298 300 302 302 306 322 346 355 352 349 345 341 343 350 356 0 7 17 34 57 62 57 57 57 56 58 59 62 76 93 100 125 163 179 187 194 199 202 203 205 206 207 206 204 203 204 202 203 207 208 207 210 210 207 206 209 217 221 220 219 221 220 221 227 231 230 227 227 228 229 227
333 342 339 329 315 298 299 307 310 310 309 305 301 300 298 295 297 298 298 299 305 321 349 4 3 356 348 345 348 355 359 2 10 24 43 60 64 59 57 55 53 56 60 60 64 73 83 101 124 141 162 182 195 202 206 208 207 208 209 206 206 207 205 203 207 210 209 209 211 212 208 206 217 227 226 224 227 228 226 228 231 233 232 228 225 226 228
331 340 340 328 314 309 311 313 311 310 310 306 299 296 293 290 292 293 291 289 294 309 333 1 11 2 353 352 355 357 359 4 15 30 44 59 69 65 58 53 50 52 58 63 63 64 69 80 100 120 134 148 168 186 197 200 200 203 204 204 205 207 207 208 211 213 212 211 214 218 214 208 215 227 229 229 231 232 231 233 235 237 239 237 234 233 234
347 347 342 330 319 323 331 328 320 322 333 329 310 296 292 288 284 286 287 282 281 297 317 348 12 6 356 357 0 2 4 9 16 27 37 51 65 65 54 49 47 48 54 61 67 72 72 71 90 120 137 148 160 170 180 187 189 190 191 193 196 198 202 208 212 213 212 210 211 215 214 214 220 227 231 233 235 235 235 236 238 240 244 245 244 242 241
356 353 347 339 337 348 350 345 338 339 343 338 323 310 303 290 279 278 281 278 276 283 298 333 10 9 1 359 1 6 12 16 19 25 33 44 56 57 46 43 48 52 57 63 70 79 79 74 88 113 129 140 150 156 169 182 188 192 189 183 184 193 198 200 204 207 208 207 211 215 220 226 230 232 234 235 235 238 240 238 238 240 242 244 246 245 243
360 0 359 355 351 352 354 349 341 338 338 337 333 326 313 293 283 279 278 277 275 275 283 317 1 10 7 3 2 9 16 18 19 23 30 40 48 50 46 46 54 61 65 65 66 72 75 74 83 100 110 121 131 131 140 166 178 193 196 189 192 205 210 209 208 210 211 214 222 226 228 230 232 233 234 233 230 232 236 234 234 237 239 241 244 244 242
2 4 7 4 351 347 348 345 343 345 346 346 346 343 330 305 292 284 282 286 286 279 280 299 332 16 20 9 1 5 15 18 20 24 30 35 40 47 52 53 51 55 62 62 57 60 67 71 78 87 94 101 108 109 116 138 154 170 182 189 200 215 219 216 211 211 215 216 219 222 225 226 226 225 224 222 217 217 220 224 229 234 236 237 238 238 236
2 1 3 3 355 352 353 354 357 0 358 356 358 1 355 339 312 294 289 290 292 288 283 280 280 309 12 20 6 1 7 15 21 27 30 30 32 41 51 53 49 49 58 61 58 60 66 70 73 78 81 82 82 82 86 95 114 145 161 169 173 178 192 199 197 201 210 212 210 213 216 214 209 203 198 200 208 215 219 222 226 228 227 226 228 229 227
359 359 360 360 360 3 5 5 4 5 2 360 0 1 2 3 355 334 315 297 290 288 283 277 277 290 322 16 21 0 356 6 18 26 31 31 29 31 39 47 48 49 53 56 56 58 64 68 67 67 69 72 71 66 65 63 61 84 136 160 171 175 179 182 183 192 202 200 195 199 202 197 194 195 196 199 205 210 212 212 211 211 210 210 212 215 215
356 360 2 4 6 9 10 8 5 5 4 3 1 1 4 8 5 354 341 323 305 287 278 280 288 298 308 325 4 6 1 8 19 27 31 32 27 22 24 35 39 38 40 45 49 53 59 63 64 61 60 63 63 57 54 56 55 55 75 112 147 165 169 168 169 180 189 190 188 190 193 195 199 200 198 198 198 198 197 196 193 192 193 193 193 197 203
356 360 5 8 9 10 11 8 5 4 4 4 3 2 1 359 355 355 350 330 311 292 276 282 292 302 308 317 348 9 4 11 24 31 32 32 26 16 15 23 28 26 30 39 46 50 54 56 58 59 58 59 57 50 44 46 49 48 52 64 80 107 127 142 163 177 182 183 184 184 186 191 197 198 198 198 195 190 188 188 183 177 175 177 179 182 184
2 4 7 8 8 8 9 7 3 2 3 4 4 2 0 1 3 4 358 341 318 302 292 283 284 290 301 317 340 347 350 5 18 24 28 37 36 24 17 19 20 19 24 33 39 45 50 50 52 55 56 56 55 50 43 40 40 44 53 58 57 71 93 110 152 180 183 183 183 182 182 186 192 197 200 199 196 193 192 187 179 174 174 175 175 174 173
12 12 11 10 10 8 6 4 2 1 1 3 6 6 5 10 18 18 10 1 344 321 317 297 265 262 269 293 323 339 350 359 7 14 26 35 37 31 26 26 24 18 20 28 33 39 44 45 46 50 52 52 52 50 46 40 35 34 42 51 54 61 71 72 77 181 179 176 176 177 178 180 184 188 189 189 193 195 189 180 177 180 180 175 169 165 165
20 18 16 15 15 13 9 5 5 5 3 3 6 7 6 13 25 34 34 31 24 4 357 43 158 187 208 265 338 10 355 344 354 8 16 13 14 16 17 21 27 32 34 33 31 33 36 37 38 41 46 50 51 47 41 36 29 23 24 28 33 46 54 52 34 1 177 169 167 168 168 168 169 169 168 171 178 181 177 173 174 177 174 166 159 158 162
22 20 18 17 16 16 15 11 8 8 7 6 6 7 8 15 28 40 45 48 49 45 48 74 85 90 101 111 46 37 6 348 359 9 1 353 2 11 5 359 6 24 39 37 28 29 34 36 34 33 35 42 52 51 38 26 16 10 12 17 15 23 38 45 32 338 241 174 158 156 155 154 154 154 154 158 164 166 166 166 166 166 162 157 154 154 156
26 23 20 18 17 16 17 15 11 10 11 10 10 11 13 17 28 41 52 62 70 75 80 89 96 98 104 120 128 86 35 22 25 24 14 8 11 9 0 358 2 8 21 31 29 26 25 23 22 21 22 25 32 45 43 20 4 355 0 25 26 22 28 36 29 293 225 182 154 151 150 149 149 150 152 155 158 157 156 156 158 159 158 155 154 154 156
28 26 23 21 20 19 20 18 14 13 13 13 14 15 16 21 30 42 55 64 71 81 95 103 106 106 106 110 112 91 58 42 38 38 34 26 17 12 15 24 23 15 13 19 20 10 359 352 350 356 1 0 360 5 10 358 348 344 344 12 32 28 22 22 33 188 191 181 169 162 159 155 152 151 151 150 150 152 154 157 159 161 160 158 158 160 162
23 24 24 24 24 23 23 22 19 18 17 17 17 17 18 23 32 42 51 57 61 70 86 97 98 94 90 86 79 67 55 46 43 45 42 27 12 12 20 24 19 14 11 6 347 327 326 335 340 338 324 302 309 324 327 317 316 320 318 316 326 343 350 340 267 189 183 181 178 174 170 165 160 157 156 155 155 157 160 160 160 161 160 160 161 162 162
17 18 20 24 26 25 24 24 23 22 20 20 21 20 19 24 31 39 46 53 58 62 70 81 88 84 75 69 66 60 53 48 49 52 50 34 17 15 18 16 9 6 6 2 347 330 325 329 328 320 308 292 285 286 291 294 295 296 299 303 309 321 329 307 255 208 188 184 184 181 176 173 170 166 164 164 163 163 163 163 162 162 162 162 161 159 158
16 15 15 20 26 27 26 25 25 25 23 22 23 23 23 25 30 34 40 48 57 63 66 71 77 77 71 68 68 63 56 54 55 55 52 48 41 36 31 22 10 3 1 358 350 340 335 331 321 302 290 283 276 275 282 290 290 285 285 291 296 299 296 253 218 201 189 186 187 184 180 177 176 172 169 167 166 165 166 167 166 166 166 165 162 160 160
13 13 15 17 22 26 27 26 26 27 27 26 25 25 26 28 30 33 39 47 57 64 68 71 75 79 79 80 79 74 64 58 57 58 58 56 53 50 45 32 16 6 1 356 350 343 337 332 326 317 307 299 290 284 283 285 285 284 284 284 275 256 222 195 189 189 189 189 190 189 186 184 181 177 172 170 169 168 169 169 167 166 164 162 161 161 162
8 11 15 16 18 23 27 28 28 30 31 30 28 28 29 31 32 35 40 46 52 59 64 67 70 74 77 80 82 80 72 62 58 60 63 61 57 55 51 40 24 13 6 360 353 349 347 345 340 334 329 326 319 301 281 272 271 271 269 263 251 230 210 197 191 191 191 190 190 190 188 186 183 178 173 170 169 168 167 166 165 163 161 161 162 164 164
8 10 12 12 14 19 24 28 31 33 33 33 32 32 33 35 36 36 39 41 45 53 60 63 62 63 65 67 70 71 69 64 60 62 65 63 58 53 48 43 36 26 18 13 9 7 11 18 19 12 6 357 335 301 274 258 248 239 234 228 215 200 192 189 185 179 174 172 173 173 173 172 169 167 165 165 166 164 163 161 160 159 159 160 160 161 162
11 9 7 6 9 15 22 28 34 36 36 36 36 36 36 37 36 37 40 41 43 48 56 61 62 62 63 63 63 66 68 68 65 62 61 61 59 52 46 45 45 39 32 35 43 47 52 57 58 55 58 67 83 129 160 158 156 157 163 169 165 157 154 156 155 150 146 145 147 149 150 151 151 152 153 156 158 158 155 151 148 148 148 147 145 143 144
11 8 5 2 0 6 20 33 37 37 37 38 39 39 39 38 37 38 41 43 43 45 50 55 61 66 67 67 66 66 67 69 69 66 62 63 64 62 58 58 60 60 61 65 70 75 83 88 87 87 93 105 114 116 115 118 124 124 124 126 128 126 123 124 126 125 122 121 123 127 129 130 131 133 134 137 139 139 136 133 131 130 130 131 130 129 128
11 8 7 4 359 0 17 34 37 36 37 41 42 41 41 41 40 39 39 40 41 43 45 48 53 58 62 65 65 63 62 66 69 67 63 63 66 69 69 70 70 70 72 75 78 83 91 96 99 103 106 109 110 109 108 109 111 112 110 110 110 110 109 110 110 109 106 104 106 111 113 114 115 115 116 116 118 118 118 119 120 118 116 116 117 117 117
13 8 8 8 3 358 8 26 35 36 38 42 44 44 43 42 42 42 41 40 40 41 41 44 47 48 52 56 58 58 60 66 69 69 69 71 70 71 74 78 79 78 79 81 83 84 86 89 94 100 103 103 102 101 101 101 102 102 102 102 102 102 103 104 105 104 101 98 99 102 105 106 107 109 109 108 108 107 106 108 110 111 110 110 112 113 114
16 12 12 12 7 2 8 21 30 34 37 41 44 45 44 42 42 42 43 44 44 43 40 40 42 45 50 55 57 59 64 70 74 77 81 83 80 77 79 83 85 85 84 85 86 86 88 89 92 93 94 94 93 93 92 92 92 93 93 93 93 93 93 95 98 100 100 97 96 96 97 98 100 103 104 105 105 105 103 104 106 109 111 111 111 110 110
22 19 19 16 12 12 18 18 14 18 31 40 42 43 43 42 42 42 41 42 45 46 46 45 45 46 49 55 60 64 68 71 74 79 85 89 91 90 89 89 90 91 90 89 88 88 89 90 91 91 90 89 88 87 86 85 85 85 85 85 85 86 86 86 88 90 93 94 94 95 94 95 97 99 101 103 104 104 105 106 108 110 112 112 110 106 104
37 30 29 25 20 22 26 22 15 16 29 39 38 37 39 42 42 42 42 43 46 48 49 50 52 53 54 56 60 66 71 74 78 84 89 92 95 97 97 96 96 96 95 93 91 89 88 87 88 87 86 84 82 80 79 79 79 79 79 79 79 79 80 79 80 81 82 85 87 89 90 91 93 95 97 99 100 102 104 105 105 105 106 106 105 103 101
50 41 39 37 32 29 28 25 23 28 41 45 33 28 32 40 43 43 42 44 48 52 54 56 57 58 60 62 65 70 74 78 84 89 92 93 94 94 93 92 90 90 90 90 90 89 88 87 87 87 85 83 80 78 75 74 73 74 75 76 76 76 76 76 77 79 80 81 83 85 87 89 90 91 92 93 93 93 93 93 92 91 91 93 94 96 96
Height
1479 1474 1474 1471 1470 1469 1465 1464 1462 1456 1453 1453 1451 1448 1441 1442 1451 1447 1436 1438 1441 1431 1422 1420 1420 1421 1422 1420 1420 1421 1421 1423 1425 1426 1428 1429 1429 1430 1432 1433 1435 1436 1438 1440 1441 1443 1446 1450 1453 1456 1459 1462 1465 1468 1471 1475 1479 1482 1485 1488 1491 1494 1497 1500 1502 1506 1511 1515 1518 1522 1525 1528 1532 1535 1538 1540 1543 1544 1546 1548 1551 1553 1554 1556 1557 1559 1561
1481 1476 1473 1470 1469 1467 1464 1463 1461 1457 1455 1452 1450 1448 1443 1442 1446 1442 1438 1441 1440 1431 1425 1423 1422 1422 1421 1420 1422 1422 1422 1423 1425 1426 1427 1427 1427 1428 1429 1431 1432 1433 1435 1436 1438 1439 1442 1446 1449 1452 1455 1458 1461 1464 1467 1470 1474 1478 1481 1484 1487 1490 1492 1495 1499 1503 1507 1511 1514 1517 1521 1524 1527 1531 1534 1537 1539 1541 1543 1545 1547 1549 1551 1553 1554 1555 1557
1484 1477 1470 1467 1465 1464 1463 1460 1457 1455 1453 1451 1449 1447 1444 1444 1445 1442 1441 1444 1440 1430 1427 1428 1426 1424 1421 1420 1421 1422 1423 1424 1425 1425 1426 1426 1426 1427 1428 1430 1431 1431 1432 1434 1435 1437 1439 1441 1444 1447 1450 1453 1457 1460 1463 1466 1470 1473 1477 1479 1482 1485 1488 1491 1495 1499 1503 1507 1510 1513 1516 1520 1523 1527 1530 1533 1535 1537 1540 1542 1544 1546 1547 1549 1551 1552 1553
1485 1475 1469 1464 1460 1459 1459 1456 1453 1452 1450 1449 1446 1443 1441 1441 1441 1442 1443 1444 1440 1433 1431 1432 1430 1426 1424 1422 1420 1421 1423 1424 1425 1425 1425 1425 1426 1426 1427 1428 1429 1430 1431 1432 1432 1433 1434 1437 1440 1443 1446 1449 1452 1456 1459 1462 1466 1469 1473 1475 1477 1481 1485 1489 1492 1495 1499 1503 1506 1509 1513 1516 1519 1523 1527 1530 1532 1534 1536 1538 1540 1542 1544 1545 1547 1549 1550
1482 1473 1468 1462 1461 1464 1458 1447 1444 1445 1445 1445 1441 1437 1437 1438 1438 1440 1441 1439 1437 1436 1436 1435 1433 1431 1429 1426 1424 1424 1424 1424 1425 1424 1424 1424 1424 1425 1425 1426 1427 1428 1429 1429 1429 1429 1430 1433 1436 1438 1441 1444 1446 1450 1454 1458 1462 1466 1469 1471 1474 1477 1482 1485 1487 1491 1495 1499 1502 1506 1509 1512 1516 1520 1523 1525 1527 1530 1532 1534 1536 1538 1540 1542 1543 1545 1547
1484 1475 1470 1468 1470 1466 1450 1435 1433 1435 1436 1439 1438 1435 1437 1439 1438 1436 1436 1436 1436 1438 1439 1439 1438 1436 1433 1431 1430 1428 1427 1426 1425 1424 1424 1423 1423 1422 1423 1423 1424 1424 1425 1426 1426 1425 1426 1428 1431 1434 1437 1440 1443 1447 1452 1456 1459 1463 1466 1469 1471 1474 1477 1480 1483 1487 1491 1495 1498 1502 1505 1509 1512 1516 1519 1521 1523 1526 1529 1531 1532 1534 1536 1538 1539 1541 1543
1484 1476 1476 1481 1476 1457 1439 1432 1431 1429 1429 1430 1435 1438 1440 1440 1439 1439 1438 1437 1438 1440 1442 1441 1439 1438 1435 1433 1431 1429 1428 1428 1426 1424 1424 1423 1422 1422 1421 1420 1420 1420 1420 1421 1422 1422 1423 1424 1428 1432 1435 1438 1442 1446 1449 1452 1456 1459 1463 1466 1468 1470 1474 1477 1480 1484 1487 1491 1495 1498 1502 1505 1508 1511 1514 1517 1520 1523 1525 1527 1528 1530 1532 1534 1536 1537 1539
1484 1479 1480 1481 1466 1443 1435 1436 1433 1430 1428 1427 1435 1447 1448 1443 1442 1443 1441 1440 1442 1443 1443 1441 1439 1437 1435 1432 1429 1428 1427 1427 1426 1425 1424 1423 1422 1421 1419 1418 1416 1416 1416 1416 1416 1418 1419 1422 1425 1428 1431 1435 1439 1443 1445 1449 1452 1456 1459 1463 1465 1467 1470 1473 1476 1480 1483 1487 1491 1494 1498 1501 1504 1507 1510 1512 1516 1518 1521 1523 1525 1526 1529 1530 1532 1534 1535
1482 1480 1476 1469 1458 1445 1440 1440 1437 1435 1434 1433 1438 1449 1453 1448 1446 1447 1446 1446 1446 1445 1442 1440 1438 1436 1434 1430 1426 1425 1426 1427 1427 1425 1423 1422 1421 1419 1417 1416 1413 1412 1412 1411 1412 1414 1416 1419 1422 1424 1427 1431 1435 1439 1443 1446 1449 1453 1456 1459 1461 1463 1466 1469 1472 1476 1479 1483 1487 1491 1494 1497 1499 1502 1505 1508 1512 1514 1517 1519 1521 1522 1525 1527 1529 1530 1532
1477 1478 1475 1470 1466 1457 1446 1443 1442 1441 1441 1440 1441 1449 1454 1452 1449 1449 1449 1449 1449 1446 1442 1440 1437 1434 1432 1427 1422 1422 1424 1425 1425 1424 1422 1421 1419 1416 1414 1412 1410 1409 1407 1407 1408 1410 1412 1414 1417 1420 1424 1428 1431 1436 1440 1442 1445 1449 1451 1454 1456 1459 1462 1465 1469 1472 1476 1480 1483 1487 1490 1492 1495 1498 1501 1504 1507 1510 1513 1515 1517 1519 1521 1523 1525 1526 1528
1475 1476 1477 1473 1468 1457 1449 1449 1449 1446 1446 1445 1445 1451 1455 1452 1449 1450 1450 1450 1450 1448 1445 1442 1437 1433 1429 1422 1419 1423 1425 1424 1423 1421 1419 1418 1416 1414 1412 1409 1407 1405 1404 1404 1405 1406 1408 1411 1413 1417 1421 1424 1428 1432 1435 1439 1442 1445 1447 1449 1452 1455 1458 1462 1466 1469 1473 1476 1480 1483 1486 1489 1492 1495 1498 1501 1504 1506 1509 1511 1514 1516 1518 1519 1521 1522 1524
1476 1473 1473 1468 1459 1451 1450 1452 1450 1447 1448 1448 1449 1453 1453 1450 1450 1451 1451 1451 1451 1450 1447 1443 1440 1439 1436 1431 1427 1427 1426 1424 1421 1420 1418 1417 1415 1411 1409 1406 1403 1402 1401 1401 1402 1403 1405 1408 1411 1414 1417 1421 1425 1428 1432 1436 1439 1441 1443 1445 1448 1452 1456 1460 1463 1466 1470 1473 1477 1480 1483 1486 1489 1492 1495 1498 1500 1503 1505 1507 1510 1512 1513 1515 1517 1518 1520
1475 1472 1471 1468 1458 1451 1451 1452 1449 1450 1450 1448 1450 1453 1451 1451 1452 1451 1452 1452 1451 1450 1449 1445 1443 1443 1443 1440 1435 1430 1427 1423 1420 1418 1417 1416 1413 1410 1407 1403 1401 1400 1400 1400 1401 1402 1404 1406 1409 1411 1415 1419 1422 1424 1429 1433 1435 1437 1440 1443 1447 1451 1454 1457 1460 1463 1467 1471 1474 1477 1480 1483 1487 1489 1492 1494 1497 1499 1501 1504 1506 1507 1509 1511 1513 1514 1516
1469 1467 1469 1470 1463 1455 1454 1454 1451 1451 1451 1450 1452 1455 1454 1454 1453 1452 1453 1452 1451 1451 1449 1446 1445 1443 1441 1439 1436 1431 1427 1422 1418 1416 1415 1414 1411 1409 1406 1403 1400 1399 1399 1399 1401 1402 1403 1405 1407 1409 1412 1415 1418 1421 1425 1428 1431 1436 1439 1442 1445 1448 1451 1455 1458 1461 1465 1468 1471 1475 1478 1481 1484 1486 1489 1492 1494 1496 1498 1500 1502 1503 1505 1507 1509 1511 1512
1467 1466 1470 1472 1465 1457 1456 1455 1452 1453 1455 1455 1457 1457 1455 1454 1454 1454 1453 1452 1451 1451 1449 1446 1445 1442 1439 1437 1434 1429 1425 1421 1417 1415 1414 1412 1410 1407 1405 1403 1400 1399 1399 1400 1401 1402 1403 1404 1406 1408 1410 1412 1414 1417 1421 1425 1430 1435 1437 1439 1442 1446 1449 1452 1455 1458 1462 1465 1468 1472 1475 1477 1480 1483 1485 1488 1490 1492 1495 1497 1498 1500 1502 1504 1505 1507 1508
1466 1465 1465 1466 1462 1458 1458 1458 1457 1457 1459 1459 1459 1457 1455 1454 1454 1454 1453 1451 1451 1450 1448 1446 1444 1441 1438 1436 1431 1428 1424 1419 1415 1413 1412 1410 1408 1405 1404 1402 1400 1399 1399 1400 1401 1402 1403 1404 1405 1407 1408 1410 1412 1415 1419 1424 1429 1433 1435 1437 1440 1443 1446 1449 1452 1456 1459 1462 1466 1469 1472 1474 1477 1479 1482 1485 1487 1489 1491 1493 1495 1497 1498 1500 1502 1503 1505
1467 1463 1461 1461 1461 1460 1460 1460 1459 1460 1460 1460 1460 1458 1456 1455 1455 1454 1453 1451 1450 1449 1448 1445 1443 1440 1438 1435 1431 1428 1423 1418 1414 1411 1411 1409 1406 1404 1403 1401 1399 1400 1400 1401 1401 1402 1403 1404 1405 1407 1408 1409 1411 1415 1419 1423 1427 1430 1433 1435 1438 1441 1444 1447 1450 1453 1457 1461 1464 1467 1469 1472 1474 1476 1479 1481 1483 1485 1488 1490 1492 1493 1495 1497 1498 1500 1501
1470 1465 1463 1464 1463 1461 1460 1460 1460 1460 1460 1460 1459 1458 1457 1456 1455 1454 1452 1450 1449 1448 1447 1444 1441 1439 1437 1434 1430 1426 1421 1417 1413 1410 1410 1409 1406 1403 1401 1399 1399 1401 1401 1402 1402 1401 1402 1404 1405 1406 1408 1410 1413 1416 1419 1422 1426 1429 1432 1434 1437 1440 1443 1446 1449 1452 1456 1459 1461 1464 1467 1469 1471 1474 1476 1478 1480 1482 1484 1486 1488 1490 1492 1493 1495 1496 1498
1473 1468 1464 1465 1464 1462 1460 1459 1459 1459 1460 1459 1459 1458 1457 1456 1454 1453 1452 1450 1449 1447 1446 1444 1442 1439 1436 1433 1429 1424 1419 1415 1411 1409 1409 1409 1406 1403 1401 1399 1399 1400 1401 1402 1402 1400 1401 1403 1405 1407 1409 1411 1414 1416 1419 1422 1426 1429 1431 1434 1437 1440 1442 1445 1448 1451 1454 1457 1459 1462 1464 1467 1469 1471 1473 1475 1477 1478 1480 1483 1484 1486 1489 1490 1491 1493 1495
1473 1468 1465 1465 1464 1461 1459 1458 1458 1459 1459 1458 1457 1456 1455 1454 1453 1452 1451 1450 1448 1446 1445 1445 1442 1438 1436 1433 1429 1423 1419 1415 1411 1409 1409 1409 1407 1404 1402 1400 1400 1400 1401 1402 1401 1401 1401 1403 1405 1406 1408 1410 1413 1416 1419 1423 1425 1427 1430 1433 1436 1439 1441 1444 1446 1449 1451 1454 1457 1460 1462 1464 1466 1468 1470 1472 1474 1475 1477 1479 1481 1483 1485 1487 1488 1490 1492
1470 1467 1467 1466 1463 1458 1457 1458 1458 1458 1458 1457 1455 1454 1454 1453 1451 1450 1449 1448 1447 1446 1445 1444 1441 1437 1435 1432 1429 1425 1420 1415 1411 1409 1410 1410 1407 1405 1404 1403 1402 1402 1403 1402 1402 1402 1403 1403 1405 1406 1407 1409 1412 1415 1418 1421 1424 1426 1429 1432 1435 1437 1440 1442 1444 1447 1449 1452 1455 1457 1459 1461 1464 1465 1467 1469 1471 1473 1475 1477 1478 1481 1483 1484 1486 1487 1489
1472 1470 1469 1469 1466 1461 1458 1458 1457 1457 1456 1455 1453 1452 1452 1451 1449 1449 1448 1447 1446 1445 1443 1442 1440 1438 1435 1432 1429 1425 1421 1417 1413 1412 1411 1410 1407 1406 1405 1405 1404 1404 1404 1404 1404 1404 1404 1405 1406 1407 1409 1410 1413 1415 1418 1420 1423 1425 1428 1430 1433 1436 1438 1441 1443 1445 1448 1450 1452 1455 1457 1459 1460 1462 1464 1466 1467 1470 1472 1473 1474 1477 1479 1481 1483 1484 1486
1474 1471 1470 1469 1467 1463 1460 1458 1457 1456 1455 1453 1452 1451 1450 1448 1447 1447 1446 1445 1444 1443 1442 1441 1440 1438 1436 1434 1430 1425 1421 1419 1416 1413 1412 1410 1408 1407 1407 1406 1406 1406 1406 1405 1405 1405 1406 1407 1408 1409 1410 1412 1414 1416 1418 1420 1423 1425 1427 1429 1432 1434 1436 1438 1441 1443 1446 1448 1450 1452 1455 1457 1458 1458 1460 1463 1464 1466 1468 1470 1471 1473 1475 1477 1479 1481 1483
1473 1471 1469 1467 1465 1462 1460 1458 1456 1454 1453 1451 1450 1449 1447 1446 1446 1445 1445 1444 1443 1442 1441 1440 1439 1438 1437 1434 1431 1426 1422 1420 1417 1415 1413 1411 1409 1409 1409 1409 1408 1408 1407 1407 1407 1407 1407 1408 1409 1410 1412 1414 1416 1418 1419 1421 1423 1425 1426 1428 1431 1433 1435 1437 1439 1441 1444 1445 1447 1449 1451 1454 1455 1455 1456 1459 1461 1463 1465 1466 1468 1470 1471 1473 1476 1478 1479
1472 1470 1467 1465 1463 1461 1459 1456 1454 1453 1451 1449 1448 1447 1445 1444 1444 1444 1443 1443 1442 1441 1441 1440 1439 1439 1438 1435 1432 1428 1424 1422 1420 1417 1415 1413 1411 1410 1410 1411 1411 1411 1410 1410 1409 1409 1409 1410 1411 1412 1413 1415 1417 1419 1420 1422 1423 1425 1426 1428 1430 1432 1434 1436 1438 1440 1442 1443 1445 1447 1449 1450 1451 1452 1454 1456 1457 1459 1461 1463 1465 1466 1468 1470 1472 1474 1476
1471 1469 1465 1463 1461 1460 1458 1455 1452 1451 1449 1448 1446 1445 1443 1442 1442 1442 1442 1442 1441 1440 1440 1439 1439 1440 1439 1436 1433 1430 1427 1424 1422 1420 1417 1414 1411 1411 1412 1413 1414 1414 1413 1412 1411 1411 1411 1412 1413 1414 1415 1417 1419 1420 1421 1422 1423 1425 1426 1428 1430 1431 1433 1435 1437 1438 1440 1442 1443 1445 1446 1447 1448 1450 1452 1453 1454 1455 1457 1459 1461 1463 1464 1466 1468 1469 1471
1470 1467 1464 1460 1458 1457 1456 1454 1452 1450 1449 1447 1445 1444 1442 1441 1440 1440 1441 1440 1439 1439 1439 1439 1439 1441 1439 1436 1434 1432 1429 1426 1423 1421 1418 1415 1414 1414 1415 1416 1416 1415 1414 1414 1414 1413 1414 1414 1415 1416 1417 1419 1421 1422 1422 1423 1424 1426 1427 1429 1430 1430 1431 1433 1435 1436 1438 1440 1442 1442 1443 1445 1446 1448 1449 1450 1452 1453 1454 1455 1456 1457 1459 1462 1464 1465 1468
1470 1467 1465 1462 1460 1458 1456 1454 1452 1450 1448 1446 1444 1442 1441 1440 1440 1440 1439 1438 1437 1436 1437 1437 1438 1440 1439 1438 1435 1433 1431 1427 1424 1421 1419 1417 1417 1417 1417 1417 1417 1417 1416 1415 1415 1415 1415 1416 1417 1418 1419 1421 1422 1422 1423 1424 1425 1427 1428 1429 1430 1431 1431 1432 1434 1436 1437 1438 1439 1440 1441 1442 1444 1446 1447 1449 1450 1450 1450 1451 1452 1454 1456 1458 1460 1462 1464
1469 1467 1465 1464 1462 1460 1457 1454 1451 1449 1446 1444 1442 1441 1440 1439 1439 1439 1438 1436 1435 1434 1435 1436 1437 1437 1438 1438 1437 1435 1432 1429 1425 1422 1421 1421 1420 1419 1419 1419 1420 1419 1418 1417 1417 1417 1417 1417 1418 1419 1420 1421 1422 1423 1423 1425 1427 1427 1427 1428 1430 1430 1431 1432 1434 1435 1436 1436 1437 1438 1439 1440 1442 1444 1445 1446 1446 1446 1447 1449 1451 1452 1454 1456 1458 1460 1462
1470 1468 1466 1464 1462 1459 1456 1452 1450 1448 1446 1444 1442 1441 1439 1438 1437 1437 1436 1436 1434 1433 1434 1435 1435 1435 1435 1436 1438 1437 1434 1431 1427 1425 1424 1423 1422 1421 1421 1421 1421 1421 1419 1418 1419 1420 1420 1420 1420 1420 1421 1422 1423 1424 1425 1427 1429 1429 1428 1429 1429 1429 1430 1431 1433 1434 1434 1434 1435 1436 1437 1438 1440 1441 1441 1442 1443 1445 1447 1448 1450 1452 1454 1456 1458 1459 1460
1471 1468 1466 1463 1461 1458 1455 1453 1450 1448 1446 1444 1442 1440 1438 1437 1436 1436 1435 1435 1434 1433 1433 1433 1433 1433 1433 1433 1435 1435 1434 1432 1430 1428 1426 1426 1425 1424 1424 1424 1425 1424 1422 1421 1422 1423 1422 1422 1422 1423 1423 1424 1425 1426 1427 1428 1429 1430 1430 1431 1431 1430 1430 1431 1432 1432 1433 1433 1433 1435 1436 1437 1438 1439 1440 1442 1443 1444 1446 1448 1450 1452 1454 1456 1457 1459 1460
1471 1468 1465 1463 1460 1458 1456 1453 1451 1448 1446 1444 1442 1440 1439 1437 1436 1435 1435 1434 1433 1432 1432 1432 1432 1432 1433 1433 1433 1434 1434 1433 1432 1430 1429 1428 1427 1426 1425 1426 1428 1429 1427 1425 1424 1425 1425 1425 1425 1425 1426 1427 1427 1428 1429 1430 1431 1432 1433 1433 1433 1431 1430 1430 1431 1432 1432 1432 1432 1433 1435 1436 1438 1439 1440 1441 1443 1444 1446 1448 1450 1452 1454 1455 1456 1457 1458
1471 1468 1465 1463 1460 1458 1456 1454 1452 1450 1448 1446 1444 1442 1440 1438 1436 1435 1434 1433 1432 1431 1430 1430 1431 1432 1433 1434 1435 1435 1435 1434 1434 1433 1432 1431 1430 1429 1428 1428 1430 1431 1430 1428 1427 1428 1427 1427 1428 1428 1428 1429 1430 1431 1432 1433 1434 1435 1436 1436 1435 1432 1430 1430 1432 1433 1433 1432 1432 1433 1434 1436 1437 1439 1440 1442 1443 1444 1446 1447 1449 1451 1452 1453 1453 1455 1456
1473 1471 1468 1466 1464 1461 1459 1457 1455 1452 1449 1447 1445 1443 1440 1437 1436 1435 1433 1432 1432 1431 1430 1430 1431 1432 1434 1435 1436 1436 1436 1436 1436 1435 1434 1433 1433 1433 1432 1431 1431 1433 1434 1433 1431 1430 1429 1429 1430 1430 1431 1431 1432 1433 1435 1436 1436 1436 1437 1438 1437 1433 1429 1430 1433 1435 1435 1434 1432 1433 1434 1435 1437 1439 1440 1442 1443 1444 1445 1446 1447 1448 1449 1450 1452 1455 1457
1475 1474 1472 1469 1467 1465 1462 1460 1457 1454 1451 1448 1445 1443 1440 1438 1436 1435 1433 1433 1432 1432 1432 1432 1432 1433 1435 1436 1437 1438 1438 1438 1437 1436 1435 1434 1433 1433 1433 1433 1433 1434 1436 1435 1434 1432 1431 1431 1432 1433 1433 1433 1432 1433 1435 1437 1438 1439 1439 1440 1438 1432 1429 1430 1434 1437 1438 1436 1434 1433 1434 1435 1436 1438 1440 1441 1443 1445 1446 1447 1447 1448 1449 1451 1453 1456 1458
1477 1475 1473 1470 1468 1466 1464 1461 1459 1456 1454 1451 1448 1445 1442 1439 1437 1435 1434 1434 1433 1433 1433 1433 1434 1435 1436 1437 1438 1438 1438 1438 1437 1436 1435 1434 1434 1434 1434 1434 1434 1435 1435 1435 1435 1435 1434 1433 1434 1435 1435 1434 1433 1434 1436 1439 1442 1443 1443 1441 1437 1432 1428 1430 1435 1439 1440 1439 1437 1435 1435 1436 1437 1438 1439 1441 1443 1445 1446 1447 1448 1449 1450 1451 1454 1456 1458
1478 1476 1474 1472 1470 1468 1465 1463 1461 1458 1456 1453 1450 1447 1444 1441 1438 1437 1436 1435 1435 1434 1434 1435 1436 1436 1437 1437 1438 1438 1438 1438 1438 1437 1436 1435 1435 1435 1435 1434 1435 1435 1435 1434 1435 1436 1435 1434 1435 1436 1436 1436 1435 1436 1437 1441 1444 1446 1445 1442 1437 1432 1429 1431 1437 1441 1443 1442 1440 1438 1438 1438 1438 1439 1440 1441 1443 1445 1447 1448 1449 1450 1451 1452 1453 1455 1457
1479 1478 1476 1474 1472 1470 1468 1465 1463 1461 1458 1455 1453 1450 1447 1444 1442 1439 1438 1437 1436 1435 1435 1436 1437 1437 1437 1437 1438 1438 1438 1437 1437 1437 1437 1436 1436 1436 1435 1435 1435 1435 1434 1433 1434 1435 1435 1435 1436 1437 1437 1437 1438 1437 1438 1441 1444 1446 1445 1442 1437 1433 1432 1434 1439 1443 1445 1444 1442 1441 1440 1440 1441 1441 1442 1443 1445 1447 1448 1449 1450 1451 1452 1453 1454 1456 1457
1480 1479 1477 1475 1473 1471 1470 1468 1465 1463 1460 1458 1455 1453 1450 1447 1445 1442 1440 1438 1438 1437 1437 1438 1438 1438 1438 1438 1438 1438 1438 1438 1438 1438 1438 1437 1436 1436 1435 1435 1435 1434 1434 1433 1434 1434 1435 1435 1436 1436 1437 1438 1438 1438 1439 1440 1442 1443 1443 1442 1439 1437 1436 1437 1441 1444 1445 1445 1444 1443 1442 1442 1442 1443 1443 1444 1446 1447 1448 1450 1451 1452 1453 1454 1456 1457 1459
1482 1480 1478 1477 1475 1473 1471 1470 1468 1465 1463 1461 1459 1456 1454 1451 1448 1446 1443 1441 1440 1440 1440 1440 1440 1440 1441 1440 1440 1440 1440 1440 1439 1439 1439 1438 1437 1436 1435 1435 1435 1435 1435 1435 1435 1435 1435 1435 1436 1436 1436 1437 1438 1438 1438 1439 1440 1441 1441 1441 1441 1440 1438 1439 1442 1444 1446 1446 1445 1444 1444 1444 1444 1444 1444 1445 1446 1448 1449 1451 1452 1453 1454 1456 1457 1459 1460
1483 1481 1479 1478 1476 1475 1473 1471 1470 1468 1466 1463 1461 1459 1457 1455 1452 1450 1448 1446 1445 1443 1443 1442 1442 1442 1443 1442 1442 1441 1441 1441 1441 1440 1440 1439 1439 1438 1437 1437 1436 1436 1436 1437 1436 1436 1435 1435 1436 1436 1436 1436 1437 1437 1438 1438 1439 1439 1440 1440 1441 1441 1440 1440 1442 1444 1446 1447 1447 1446 1445 1445 1445 1446 1446 1447 1448 1449 1450 1452 1453 1454 1455 1457 1458 1460 1462
1484 1482 1481 1479 1478 1476 1475 1473 1472 1470 1468 1466 1464 1462 1460 1458 1455 1454 1452 1451 1449 1447 1446 1445 1444 1444 1444 1443 1443 1443 1443 1443 1443 1442 1441 1441 1441 1441 1440 1440 1439 1439 1438 1438 1437 1436 1435 1434 1434 1435 1435 1436 1436 1437 1438 1438 1439 1439 1439 1440 1440 1440 1440 1440 1441 1444 1446 1448 1448 1447 1447 1446 1447 1447 1448 1449 1450 1451 1452 1453 1454 1455 1456 1458 1460 1461 1463
1484 1483 1482 1480 1479 1478 1477 1475 1474 1472 1471 1469 1467 1465 1463 1461 1459 1457 1456 1454 1452 1450 1449 1448 1447 1446 1446 1445 1445 1444 1445 1445 1445 1445 1444 1444 1444 1443 1443 1443 1442 1440 1440 1439 1438 1436 1435 1434 1434 1434 1435 1436 1437 1437 1438 1438 1438 1438 1439 1440 1440 1440 1440 1440 1441 1443 1446 1447 1448 1448 1448 1447 1447 1448 1449 1451 1452 1454 1455 1455 1456 1457 1458 1459 1461 1462 1464
1485 1483 1482 1481 1480 1479 1478 1477 1475 1474 1472 1471 1469 1468 1466 1464 1462 1461 1459 1458 1456 1454 1452 1451 1450 1449 1448 1447 1447 1447 1447 1447 1448 1447 1447 1446 1446 1445 1445 1444 1443 1442 1441 1440 1439 1438 1436 1435 1435 1435 1436 1437 1437 1437 1437 1437 1437 1438 1439 1440 1440 1440 1440 1441 1443 1445 1446 1447 1448 1449 1449 1448 1448 1449 1450 1452 1453 1455 1457 1458 1458 1459 1460 1461 1463 1464 1465
1486 1485 1483 1482 1481 1480 1479 1478 1477 1476 1474 1473 1472 1470 1468 1467 1465 1464 1463 1461 1460 1458 1456 1455 1453 1452 1451 1450 1450 1450 1450 1449 1449 1449 1449 1448 1448 1448 1448 1447 1445 1444 1443 1442 1440 1439 1439 1438 1438 1437 1437 1438 1439 1438 1437 1437 1438 1439 1440 1440 1440 1441 1442 1444 1446 1447 1448 1449 1449 1450 1450 1450 1450 1450 1451 1452 1454 1456 1457 1459 1460 1461 1462 1463 1464 1466 1467
1487 1486 1484 1483 1482 1480 1479 1479 1478 1477 1476 1475 1473 1472 1471 1470 1469 1467 1466 1465 1463 1462 1461 1460 1458 1457 1455 1455 1454 1454 1453 1452 1452 1451 1451 1451 1451 1451 1451 1450 1448 1447 1446 1444 1443 1442 1442 1442 1441 1440 1440 1441 1441 1440 1439 1439 1440 1441 1442 1443 1443 1444 1445 1447 1448 1449 1450 1451 1452 1451 1451 1452 1452 1452 1453 1454 1456 1457 1459 1460 1461 1463 1464 1465 1466 1468 1469
1488 1487 1485 1484 1482 1481 1480 1479 1479 1478 1477 1476 1475 1474 1473 1473 1472 1470 1469 1468 1467 1466 1465 1464 1462 1461 1460 1459 1458 1457 1456 1456 1455 1454 1454 1455 1455 1454 1454 1453 1452 1450 1448 1447 1446 1446 1446 1445 1443 1443 1444 1445 1444 1443 1443 1443 1444 1445 1446 1447 1448 1449 1449 1450 1450 1450 1452 1453 1453 1452 1452 1452 1453 1454 1455 1457 1458 1461 1463 1464 1464 1465 1466 1467 1468 1470 1471
1490 1488 1486 1485 1484 1482 1481 1480 1480 1479 1479 1478 1477 1477 1476 1475 1474 1473 1473 1472 1470 1469 1468 1467 1466 1465 1464 1463 1462 1460 1459 1458 1458 1457 1458 1458 1458 1457 1457 1456 1455 1454 1452 1450 1450 1451 1450 1448 1447 1448 1449 1449 1448 1448 1448 1448 1448 1449 1450 1451 1452 1453 1454 1454 1454 1454 1455 1456 1456 1455 1455 1455 1456 1457 1459 1460 1462 1463 1465 1466 1467 1468 1469 1470 1471 1473 1475
1490 1489 1488 1486 1485 1483 1482 1481 1480 1480 1480 1479 1479 1478 1478 1477 1477 1476 1475 1474 1473 1472 1471 1469 1468 1468 1467 1466 1465 1464 1463 1462 1461 1460 1460 1460 1460 1460 1461 1460 1459 1457 1456 1454 1454 1455 1454 1452 1451 1452 1454 1454 1453 1453 1454 1454 1454 1454 1455 1455 1457 1458 1459 1459 1458 1458 1459 1460 1460 1459 1460 1460 1461 1461 1463 1464 1466 1467 1468 1469 1469 1470 1471 1473 1475 1477 1477
1491 1490 1489 1488 1486 1485 1484 1482 1482 1481 1481 1480 1480 1479 1479 1479 1478 1478 1477 1476 1475 1474 1473 1472 1471 1471 1470 1469 1468 1467 1467 1466 1465 1464 1464 1463 1463 1463 1463 1463 1462 1461 1459 1459 1458 1459 1458 1456 1455 1456 1458 1458 1458 1458 1459 1459 1460 1460 1461 1461 1462 1463 1464 1465 1464 1463 1463 1463 1463 1464 1465 1466 1466 1467 1467 1469 1470 1471 1472 1473 1474 1474 1473 1474 1476 1478 1478
1492 1491 1490 1489 1488 1487 1485 1484 1483 1482 1482 1482 1481 1480 1480 1480 1480 1479 1479 1478 1477 1476 1476 1475 1474 1473 1473 1472 1471 1470 1470 1470 1469 1468 1467 1467 1466 1466 1466 1465 1465 1464 1463 1462 1462 1462 1462 1461 1460 1460 1461 1462 1462 1463 1463 1464 1465 1466 1467 1467 1468 1468 1469 1469 1469 1468 1467 1467 1467 1468 1469 1471 1471 1472 1472 1473 1475 1476 1477 1478 1478 1477 1475 1474 1476 1477 1478
1493 1492 1491 1491 1490 1489 1488 1486 1485 1484 1483 1483 1482 1482 1482 1482 1481 1481 1480 1480 1479 1478 1478 1477 1477 1476 1476 1475 1474 1474 1473 1473 1472 1472 1471 1471 1470 1470 1470 1469 1468 1467 1467 1466 1466 1466 1466 1465 1465 1465 1465 1466 1466 1467 1468 1469 1469 1470 1470 1471 1471 1471 1472 1472 1472 1472 1471 1471 1471 1472 1473 1474 1475 1475 1476 1478 1479 1480 1480 1481 1480 1478 1477 1476 1477 1478 1479